Home > Weather > Gandhinagar > Past weeks

Flag for India Past Weather in Gandhinagar, Gujarat, India — Yesterday and Last 2 Weeks

Now
104 °F

Scattered clouds.


Feels Like: 117 °F
Forecast: 85 / 107 °F
Wind: 6 mph from West

Location: Ahmadabad Airport

Current Time: May 27, 2016 at 2:06:05 PM

Latest Report: May 27, 2016 at 1:30 PM


Visibility: 4 mi

Pressure: 29.71 "Hg

Humidity: 38%

Dew Point: 73 °F

Location of GandhinagarLocation

Past Weather in Gandhinagar — Graph

°F

Gandhinagar Temperature Yesterday

Maximum temperature yesterday: 108 °F (at 4:30 PM)
Minimum temperature yesterday: 86 °F (at 4:30 AM)
Average temperature yesterday: 95 °F

High & Low Weather Summary for the Past Weeks

 TemperatureHumidityPressure
High122 °F (May 18, 4:00 PM)70% (May 21, 7:30 AM)29.80 "Hg (May 21, 7:30 AM)
Low84 °F (May 14, 5:30 AM)9% (May 19, 5:30 PM)29.42 "Hg (May 18, 4:00 PM)
Average99 °F41%29.62 "Hg
* Reported May 12 12:30 PM — May 27 1:00 PM, Gandhinagar, Weather by CustomWeather, © 2016

Note: Actual official high and low records may vary slightly from our data, if they occured in-between our weather recording intervals... More about our weather records

Advertising

Gandhinagar Weather History for the Previous 24 Hours

Scroll right to see more
 ConditionsComfort  
Time TempWeatherWind HumidityBarometerVisibility
1:00 PM
Fri, May 27
102 °FScattered clouds.5 mph40%29.74 "Hg4 mi
12:30 PM100 °FScattered clouds.7 mph42%29.74 "Hg4 mi
12:00 PM100 °FScattered clouds.6 mph42%29.77 "Hg4 mi
11:30 AM97 °FScattered clouds.6 mph44%29.77 "Hg4 mi
11:00 AM97 °FScattered clouds.12 mph47%29.77 "Hg4 mi
10:30 AM95 °FScattered clouds.10 mph50%29.77 "Hg4 mi
10:00 AM95 °FScattered clouds.8 mph50%29.77 "Hg4 mi
9:30 AM93 °FScattered clouds.12 mph53%29.77 "Hg4 mi
9:00 AM91 °FScattered clouds.12 mph59%29.77 "Hg4 mi
8:30 AM90 °FScattered clouds.12 mph59%29.77 "Hg4 mi
8:00 AM88 °FScattered clouds.10 mph62%29.77 "Hg3 mi
7:30 AM88 °FScattered clouds.12 mph62%29.77 "Hg2 mi
7:00 AM88 °FScattered clouds.12 mph62%29.77 "Hg2 mi
6:30 AM88 °FScattered clouds.8 mph66%29.74 "Hg2 mi
6:00 AM86 °FPassing clouds.9 mph66%29.74 "Hg2 mi
5:30 AM88 °FPassing clouds.12 mph66%29.71 "Hg2 mi
5:00 AM88 °FPassing clouds.7 mph66%29.71 "Hg2 mi
4:30 AM88 °FPassing clouds.8 mph66%29.71 "Hg2 mi
4:00 AM88 °FPassing clouds.7 mph66%29.71 "Hg2 mi
3:30 AM90 °FPassing clouds.8 mph67%29.71 "Hg2 mi
3:00 AM90 °FPassing clouds.6 mph67%29.71 "Hg2 mi
2:00 AM91 °FPassing clouds.8 mph63%29.71 "Hg2 mi
1:30 AM91 °FPassing clouds.12 mph59%29.68 "Hg2 mi
1:00 AM91 °FPassing clouds.10 mph59%29.68 "Hg2 mi
12:30 AM91 °FPassing clouds.12 mph56%29.68 "Hg2 mi
11:30 PM
Thu, May 26
93 °FPassing clouds.10 mph53%29.71 "Hg2 mi
11:00 PM93 °FPassing clouds.9 mph53%29.71 "Hg2 mi
10:30 PM91 °FPassing clouds.9 mph67%29.71 "Hg2 mi
10:00 PM93 °FPassing clouds.8 mph59%29.68 "Hg2 mi
9:30 PM93 °FPassing clouds.10 mph59%29.68 "Hg2 mi
9:00 PM93 °FDuststorm.12 mph59%29.65 "Hg2 mi
8:30 PM93 °FDuststorm.14 mph59%29.65 "Hg2 mi
8:00 PM95 °FDuststorm.12 mph56%29.62 "Hg2 mi
7:30 PM97 °FPassing clouds.10 mph53%29.62 "Hg2 mi
7:00 PM99 °FPassing clouds.14 mph50%29.59 "Hg3 mi
6:30 PM100 °FPassing clouds.12 mph47%29.59 "Hg4 mi
6:00 PM102 °FScattered clouds.13 mph45%29.59 "Hg4 mi
5:30 PM106 °FScattered clouds.12 mph40%29.56 "Hg4 mi
5:00 PM108 °FScattered clouds.10 mph32%29.56 "Hg4 mi
4:30 PM108 °FScattered clouds.12 mph32%29.56 "Hg4 mi
4:00 PM106 °FScattered clouds.13 mph32%29.59 "Hg4 mi
3:30 PM106 °FScattered clouds.13 mph36%29.59 "Hg4 mi
3:00 PM106 °FScattered clouds.13 mph36%29.62 "Hg4 mi
2:30 PM106 °FScattered clouds.12 mph34%29.62 "Hg4 mi
2:00 PM104 °FScattered clouds.12 mph33%29.65 "Hg4 mi
Weather by CustomWeather, © 2016

See weather overviewHow to use our weather pages